Fort Indiantown Gap, PA

7:45 PM EDT on April 21, 2018 (GMT -0400)
Muir Army Air Field

Weather History for KMUI - August, 2013

Change the Weather History Date:

Monday, August 26, 2013

  Actual Average Record
Temperature  
Mean Temperature 72 °F -  
Max Temperature 87 °F 79 °F 89 °F (2016)
Min Temperature 57 °F 64 °F 55 °F (2014)
Cooling Degree Days 6    
Growing Degree Days 22 (Base 50)    
Moisture  
Dew Point 61 °F    
Average Humidity 85    
Maximum Humidity 100    
Minimum Humidity 44    
Precipitation  
Precipitation 0.00 in - - ()
Sea Level Pressure  
Sea Level Pressure 30.16 in    
Wind  
Wind Speed 2 mph (WSW)    
Max Wind Speed 15 mph    
Max Gust Speed 23 mph    
Visibility 6 miles    
Events      
Averages and records for this station are not official NWS values.
T = Trace of Precipitation, MM = Missing Value Source: NWS Daily Summary

Daily Weather History Graph

Daily Weather History Graph

Search for Another Location

Airport or City:

Astronomy

Aug. 26, 2013 Rise Set
Actual Time 6:28 AM EDT 7:47 PM EDT
Civil Twilight 5:59 AM EDT 8:15 PM EDT
Nautical Twilight 5:25 AM EDT 8:49 PM EDT
Astronomical Twilight 4:49 AM EDT 9:25 PM EDT
Moon 10:55 PM EDT (8/26) 12:28 PM EDT (8/26)
Length of Visible Light 14h 15m
Length of Day
13h 19m
Waning Gibbous, 67% of the Moon is Illuminated
Aug 26
Waning Gibbous
Aug 28
Last Quarter
Sep 5
New
Sep 12
First Quarter
Sep 19
Full

Hourly Weather History & Observations

Time (EDT) Temp. Heat Index Dew Point Humidity Pressure Visibility Wind Dir Wind Speed Gust Speed Precip Events Conditions
12:58 AM 59.5 °F - 58.8 °F 97% 30.27 in 5.0 mi Calm Calm - N/A   Mostly Cloudy
1:58 AM 60.1 °F - 58.8 °F 96% 30.25 in 6.0 mi Calm Calm - N/A   Overcast
2:58 AM 61.2 °F - 58.6 °F 91% 30.25 in 4.0 mi Calm Calm - N/A   Overcast
3:52 AM 60.8 °F - 59.0 °F 94% 30.22 in 2.5 mi Calm Calm - N/A   Mostly Cloudy
3:58 AM 60.4 °F - 58.8 °F 94% 30.22 in 2.5 mi Calm Calm - N/A   Scattered Clouds
4:00 AM 60.8 °F - 59.0 °F 94% 30.22 in 3.0 mi Calm Calm - N/A   Scattered Clouds
4:18 AM 59.0 °F - 59.0 °F 100% 30.22 in 2.5 mi Calm Calm - N/A   Clear
4:22 AM 59.0 °F - 59.0 °F 100% 30.21 in 1.8 mi Calm Calm - N/A   Clear
4:30 AM 59.0 °F - 59.0 °F 100% 30.21 in 1.5 mi Calm Calm - N/A   Clear
4:34 AM 59.0 °F - 57.2 °F 94% 30.21 in 1.8 mi Calm Calm - N/A   Partly Cloudy
4:42 AM 57.2 °F - 57.2 °F 100% 30.22 in 2.0 mi NNE 2.3 mph - N/A   Scattered Clouds
4:48 AM 57.2 °F - 57.2 °F 100% 30.22 in 1.8 mi NE 1.2 mph - N/A   Partly Cloudy
4:58 AM 57.9 °F - 57.7 °F 99% 30.22 in 1.8 mi East 2.3 mph - N/A   Partly Cloudy
5:00 AM 59.0 °F - 57.2 °F 94% 30.22 in 2.0 mi East 1.2 mph - N/A   Scattered Clouds
5:14 AM 57.2 °F - 57.2 °F 100% 30.21 in 1.8 mi Calm Calm - N/A   Mostly Cloudy
5:16 AM 57.2 °F - 57.2 °F 100% 30.21 in 2.0 mi Calm Calm - N/A   Mostly Cloudy
5:26 AM 57.2 °F - 57.2 °F 100% 30.22 in 2.5 mi NNE 3.5 mph - N/A   Scattered Clouds
5:58 AM 57.7 °F - 57.4 °F 99% 30.22 in 2.5 mi Calm Calm - N/A   Mostly Cloudy
6:00 AM 57.2 °F - 57.2 °F 100% 30.22 in 3.0 mi Calm Calm - N/A   Mostly Cloudy
6:10 AM 59.0 °F - 57.2 °F 94% 30.23 in 2.5 mi Calm Calm - N/A   Overcast
6:16 AM 59.0 °F - 57.2 °F 94% 30.23 in 1.8 mi Calm Calm - N/A   Overcast
6:22 AM 59.0 °F - 57.2 °F 94% 30.23 in 2.0 mi East 2.3 mph - N/A   Overcast
6:28 AM 59.0 °F - 59.0 °F 100% 30.23 in 1.8 mi Calm Calm - N/A   Overcast
6:30 AM 59.0 °F - 59.0 °F 100% 30.23 in 1.5 mi Calm Calm - N/A   Overcast
6:32 AM 59.0 °F - 59.0 °F 100% 30.23 in 1.2 mi Calm Calm - N/A   Overcast
6:40 AM 59.0 °F - 59.0 °F 100% 30.23 in 10.0 mi Calm Calm - N/A   Overcast
6:58 AM 59.0 °F - 59.0 °F 100% 30.24 in 10.0 mi SE 2.3 mph - N/A   Overcast
7:58 AM 62.8 °F - 58.8 °F 87% 30.24 in 10.0 mi Calm Calm - 0.00 in   Partly Cloudy
8:58 AM 66.6 °F - 60.3 °F 80% 30.23 in 10.0 mi SSW 4.6 mph - N/A   Mostly Cloudy
9:58 AM 71.8 °F - 61.3 °F 70% 30.22 in 10.0 mi SW 6.9 mph - N/A   Partly Cloudy
10:58 AM 74.7 °F - 62.1 °F 65% 30.19 in 10.0 mi SW 8.1 mph - N/A   Mostly Cloudy
11:58 AM 79.7 °F - 62.6 °F 56% 30.17 in 10.0 mi SSW 11.5 mph - N/A   Clear
12:58 PM 80.6 °F 82.0 °F 63.5 °F 56% 30.14 in 10.0 mi SSW 9.2 mph - N/A   Scattered Clouds
1:58 PM 83.1 °F 84.2 °F 63.5 °F 51% 30.10 in 10.0 mi Variable 4.6 mph - N/A   Scattered Clouds
2:58 PM 85.5 °F 85.7 °F 61.5 °F 44% 30.06 in 10.0 mi West 8.1 mph - N/A   Mostly Cloudy
3:58 PM 86.2 °F 87.1 °F 63.1 °F 46% 30.03 in 10.0 mi SW 11.5 mph 23.0 mph N/A   Clear
4:30 PM 86.0 °F 86.6 °F 62.6 °F 45% 30.02 in 10.0 mi WSW 15.0 mph - N/A   Clear
4:58 PM 85.3 °F 86.4 °F 63.3 °F 48% 30.01 in 10.0 mi SW 15.0 mph - N/A   Clear
5:58 PM 82.9 °F 84.6 °F 64.8 °F 54% 30.00 in 10.0 mi SSW 8.1 mph - N/A   Clear
6:58 PM 81.1 °F 82.9 °F 65.1 °F 58% 29.99 in 10.0 mi SW 5.8 mph - N/A   Partly Cloudy
7:58 PM 74.8 °F - 68.2 °F 80% 30.00 in 10.0 mi NNW 1.2 mph - N/A   Partly Cloudy
8:58 PM 72.1 °F - 67.8 °F 86% 30.00 in 10.0 mi Variable 1.2 mph - N/A   Mostly Cloudy
9:58 PM 71.2 °F - 67.3 °F 87% 30.00 in 10.0 mi Variable 1.2 mph - N/A   Mostly Cloudy
10:58 PM 72.1 °F - 66.9 °F 84% 29.99 in 10.0 mi North 3.5 mph - N/A   Scattered Clouds
11:11 PM 71.6 °F - 68.0 °F 88% 29.98 in 10.0 mi North 1.2 mph - N/A   Light Drizzle
11:56 PM 73.4 °F - 68.0 °F 83% 29.97 in 10.0 mi NW 3.5 mph - N/A   Mostly Cloudy
11:58 PM 73.4 °F - 68.0 °F 83% 29.97 in 10.0 mi NW 3.5 mph - 0.00 in   Mostly Cloudy